Terminal Aerodrome Forecast
Issued by NWS Grand Forks, ND

Home | Current Version | Previous Version | Text Only | Print | Product List | Glossary On
Versions: 1 2 3 4 5 6 7 8 9 10 11 12 13 14 15 16 17 18 19 20 21 22 23 24 25 26 27 28
000
FTUS43 KFGF 201100
TAFGFK
TAF
KGFK 201131Z 2012/2112 14006KT P6SM FEW250
     FM201600 16011KT P6SM SCT150
     FM202100 16012G18KT P6SM BKN250
     FM210400 16012KT P6SM VCTS BKN050CB=

USA.gov is the U.S. government's official web portal to all federal, state and local government web resources and services.